This is the latest recevied weather packets stored in our database for station/object VA3BOO. If no packets are shown the sender has not sent any weather packets the latest 10 day(s).
| Time | Temp. | Humidity | Pressure | Rain* | Wind** | Luminosity | Snow |
|---|---|---|---|---|---|---|---|
| 1777559704 | 7.22° C | 80% | 1008.6 hPa | 0 mm | - | 167 W/m² | - |
| 1777559404 | 6.67° C | 81% | 1008.4 hPa | 0 mm | - | 145 W/m² | - |
| 1777559104 | 6.67° C | 81% | 1008.3 hPa | 0 mm | - | 141 W/m² | - |
| 1777558804 | 6.67° C | 81% | 1008.3 hPa | 0 mm | - | 138 W/m² | - |
| 1777558504 | 7.22° C | 81% | 1008.4 hPa | 0 mm | - | 137 W/m² | - |
| 1777558204 | 7.22° C | 81% | 1008.4 hPa | 0 mm | - | 136 W/m² | - |
| 1777557904 | 7.22° C | 80% | 1008.3 hPa | 0 mm | - | 150 W/m² | - |
| 1777557604 | 7.22° C | 82% | 1008 hPa | 0 mm | - | 220 W/m² | - |
| 1777557304 | 7.22° C | 81% | 1008.3 hPa | 0 mm | - | 193 W/m² | - |
| 1777557004 | 7.22° C | 82% | 1008.4 hPa | 0 mm | - | 165 W/m² | - |
| 1777556704 | 7.22° C | 82% | 1008.4 hPa | 0 mm | - | 165 W/m² | - |
| 1777556404 | 7.22° C | 82% | 1008.5 hPa | 0 mm | - | 220 W/m² | - |
| 1777556104 | 7.22° C | 83% | 1008 hPa | 0 mm | - | 171 W/m² | - |
| 1777555804 | 6.67° C | 84% | 1008.2 hPa | 0 mm | - | 232 W/m² | - |
| 1777555504 | 6.67° C | 83% | 1008.3 hPa | 0 mm | - | 192 W/m² | - |
| 1777555204 | 6.67° C | 84% | 1008 hPa | 0 mm | - | 200 W/m² | - |
| 1777554904 | 6.67° C | 84% | 1008.3 hPa | 0 mm | - | 160 W/m² | - |
| 1777554604 | 6.67° C | 85% | 1008.3 hPa | 0 mm | - | 176 W/m² | - |
| 1777554304 | 6.67° C | 84% | 1008.3 hPa | 0 mm | - | 267 W/m² | - |
| 1777554004 | 6.67° C | 86% | 1008.3 hPa | 0 mm | - | 228 W/m² | - |
| 1777553704 | 6.11° C | 86% | 1008.3 hPa | 0 mm | - | 168 W/m² | - |
| 1777553404 | 6.11° C | 86% | 1008.2 hPa | 0 mm | - | 171 W/m² | - |
| 1777553104 | 6.11° C | 86% | 1008.2 hPa | 0 mm | - | 138 W/m² | - |
| 1777552804 | 6.11° C | 86% | 1008.2 hPa | 0 mm | - | 145 W/m² | - |
| 1777552504 | 6.11° C | 88% | 1008.3 hPa | 0 mm | - | 151 W/m² | - |
* Rain latest hour (hover to see other rain measurements)
** Current wind speed in m/s (hover to see current wind gust speed)